TimeCDT,TemperatureF,Dew PointF,Humidity,Sea Level PressureIn,VisibilityMPH,Wind Direction,Wind SpeedMPH,Gust SpeedMPH,PrecipitationIn,Events,Conditions,WindDirDegrees,DateUTC
12:51 AM,54.0,44.1,69,30.24,10.0,SSE,6.9,-,N/A,,Clear,150,2013-03-13 05:51:00
1:51 AM,52.0,44.1,74,30.23,10.0,SSE,5.8,-,N/A,,Clear,150,2013-03-13 06:51:00
2:51 AM,50.0,43.0,77,30.24,10.0,South,4.6,-,N/A,,Clear,180,2013-03-13 07:51:00
3:51 AM,48.9,44.1,83,30.23,10.0,SSE,4.6,-,N/A,,Clear,160,2013-03-13 08:51:00
4:35 AM,46.4,42.8,87,30.24,9.0,Calm,Calm,-,N/A,Fog,Patches of Fog,0,2013-03-13 09:35:00
4:51 AM,48.9,46.0,90,30.25,10.0,Calm,Calm,-,N/A,Fog,Patches of Fog,0,2013-03-13 09:51:00
5:51 AM,48.0,44.1,86,30.27,10.0,North,6.9,-,N/A,Fog,Shallow Fog,360,2013-03-13 10:51:00
6:51 AM,50.0,46.0,86,30.31,10.0,North,6.9,-,N/A,,Clear,360,2013-03-13 11:51:00
7:51 AM,48.9,45.0,86,30.34,10.0,North,4.6,-,N/A,,Clear,350,2013-03-13 12:51:00
8:51 AM,57.2,51.8,82,30.37,10.0,North,15.0,-,N/A,,Partly Cloudy,10,2013-03-13 13:51:00
9:51 AM,63.0,53.1,70,30.39,10.0,NE,6.9,-,N/A,,Clear,50,2013-03-13 14:51:00
10:51 AM,68.0,54.0,61,30.41,10.0,NE,8.1,-,N/A,,Partly Cloudy,50,2013-03-13 15:51:00
11:51 AM,72.0,53.1,51,30.41,10.0,East,10.4,-,N/A,,Scattered Clouds,80,2013-03-13 16:51:00
12:51 PM,73.9,48.0,40,30.40,10.0,ENE,12.7,18.4,N/A,,Scattered Clouds,70,2013-03-13 17:51:00
1:51 PM,73.9,48.9,41,30.38,10.0,East,11.5,-,N/A,,Scattered Clouds,100,2013-03-13 18:51:00
2:51 PM,73.9,48.9,41,30.36,10.0,ESE,12.7,24.2,N/A,,Partly Cloudy,110,2013-03-13 19:51:00
3:51 PM,73.0,46.9,39,30.35,10.0,East,13.8,23.0,N/A,,Partly Cloudy,100,2013-03-13 20:51:00
4:51 PM,73.0,50.0,44,30.33,10.0,East,16.1,-,N/A,,Partly Cloudy,100,2013-03-13 21:51:00
5:51 PM,71.1,48.0,44,30.33,10.0,ESE,17.3,-,N/A,,Partly Cloudy,110,2013-03-13 22:51:00
6:51 PM,68.0,50.0,52,30.33,10.0,ESE,17.3,-,N/A,,Clear,110,2013-03-13 23:51:00
7:51 PM,64.9,48.9,56,30.33,10.0,ESE,11.5,-,N/A,,Clear,110,2013-03-14 00:51:00
8:51 PM,63.0,51.1,65,30.35,10.0,ESE,10.4,-,N/A,,Clear,110,2013-03-14 01:51:00
9:51 PM,61.0,50.0,67,30.37,10.0,ESE,6.9,-,N/A,,Clear,110,2013-03-14 02:51:00
10:51 PM,61.0,50.0,67,30.37,10.0,ESE,8.1,-,N/A,,Clear,110,2013-03-14 03:51:00
11:51 PM,57.9,48.9,72,30.37,10.0,ESE,8.1,-,N/A,,Clear,120,2013-03-14 04:51:00